| time (UTC) | temp F | wind direction | speed knots | gust knots | rain 1hr in | rain 24hr in | rain mn in | humidity % | barometer mb |
| 20260502201504 | 62 | 86 | 7.0 | 12.2 | 0.00 | 0.00 | 0.00 | 20 | 1013.4 |
| 20260502201004 | 61 | 66 | 5.2 | 8.7 | 0.00 | 0.00 | 0.00 | 19 | 1013.6 |
| 20260502200504 | 61 | 71 | 6.1 | 13.0 | 0.00 | 0.00 | 0.00 | 18 | 1013.6 |
| 20260502195503 | 60 | 159 | 1.7 | 5.2 | 0.00 | 0.00 | 0.00 | 18 | 1013.8 |
| 20260502195003 | 60 | 168 | 4.3 | 11.3 | 0.00 | 0.00 | 0.00 | 18 | 1014.2 |
| 20260502194504 | 61 | 141 | 4.3 | 7.0 | 0.00 | 0.00 | 0.00 | 19 | 1014.2 |
| 20260502194003 | 61 | 177 | 4.3 | 10.4 | 0.00 | 0.00 | 0.00 | 19 | 1014.3 |
| 20260502193504 | 61 | 107 | 5.2 | 10.4 | 0.00 | 0.00 | 0.00 | 19 | 1014.2 |
| 20260502193003 | 61 | 119 | 8.7 | 13.9 | 0.00 | 0.00 | 0.00 | 19 | 1014.2 |
| 20260502192504 | 61 | 134 | 3.5 | 12.2 | 0.00 | 0.00 | 0.00 | 19 | 1014.2 |
| 20260502191503 | 62 | 112 | 6.1 | 13.0 | 0.00 | 0.00 | 0.00 | 18 | 1014.3 |
| 20260502191004 | 62 | 45 | 6.1 | 11.3 | 0.00 | 0.00 | 0.00 | 20 | 1014.5 |
| 20260502190504 | 62 | 349 | 4.3 | 10.4 | 0.00 | 0.00 | 0.00 | 16 | 1014.8 |
| 20260502190004 | 62 | 81 | 2.6 | 5.2 | 0.00 | 0.00 | 0.00 | 14 | 1014.9 |
| 20260502185503 | 62 | 31 | 7.0 | 11.3 | 0.00 | 0.00 | 0.00 | 15 | 1014.9 |
| 20260502185003 | 61 | 36 | 4.3 | 7.8 | 0.00 | 0.00 | 0.00 | 14 | 1015.0 |
| 20260502184003 | 62 | 65 | 0.9 | 6.1 | 0.00 | 0.00 | 0.00 | 12 | 1015.1 |
| 20260502183504 | 62 | 342 | 2.6 | 6.1 | 0.00 | 0.00 | 0.00 | 15 | 1015.1 |
| 20260502182504 | 59 | 347 | 4.3 | 6.1 | 0.00 | 0.00 | 0.00 | 11 | 1015.3 |
| 20260502182003 | 59 | 328 | 0.9 | 4.3 | 0.00 | 0.00 | 0.00 | 14 | 1015.4 |
| 20260502180503 | 60 | 122 | 2.6 | 7.8 | 0.00 | 0.00 | 0.00 | 14 | 1015.5 |
| 20260502170504 | 56 | 89 | 1.7 | 5.2 | 0.00 | 0.02 | 0.00 | 21 | 1016.3 |
| 20260502164003 | 53 | 228 | 2.6 | 7.0 | 0.00 | 0.03 | 0.00 | 21 | 1017.3 |
| 20260502163504 | 53 | 166 | 1.7 | 6.1 | 0.00 | 0.03 | 0.00 | 21 | 1017.3 |
| 20260502162003 | 53 | 129 | 1.7 | 7.8 | 0.00 | 0.04 | 0.00 | 23 | 1017.3 |
| 20260502161503 | 53 | 155 | 2.6 | 5.2 | 0.00 | 0.04 | 0.00 | 23 | 1017.4 |
| 20260502161004 | 53 | 137 | 4.3 | 7.8 | 0.00 | 0.04 | 0.00 | 22 | 1017.3 |
| 20260502160504 | 52 | 137 | 4.3 | 10.4 | 0.00 | 0.04 | 0.00 | 24 | 1017.3 |
| 20260502152004 | 49 | 177 | 1.7 | 2.6 | 0.00 | 0.07 | 0.00 | 31 | 1017.3 |
| 20260502151503 | 48 | 130 | 0.9 | 1.7 | 0.00 | 0.07 | 0.00 | 35 | 1017.2 |
| 20260502150504 | 46 | 86 | 0.9 | 2.6 | 0.00 | 0.08 | 0.00 | 37 | 1017.4 |
| 20260502130504 | 29 | 27 | 0.0 | 0.0 | 0.00 | 0.10 | 0.00 | 75 | 1019.0 |
| 20260502123504 | 23 | 27 | 0.0 | 0.9 | 0.00 | 0.10 | 0.00 | 86 | 1018.6 |
| 20260502123004 | 23 | 27 | 0.9 | 2.6 | 0.00 | 0.10 | 0.00 | 86 | 1018.7 |
| 20260502122503 | 22 | 27 | 0.0 | 1.7 | 0.00 | 0.10 | 0.00 | 83 | 1018.7 |
| 20260502122003 | 22 | 27 | 0.9 | 1.7 | 0.00 | 0.10 | 0.00 | 83 | 1018.6 |
| 20260502121504 | 22 | 27 | 0.9 | 1.7 | 0.00 | 0.10 | 0.00 | 83 | 1018.7 |
| 20260502120504 | 22 | 325 | 0.0 | 0.0 | 0.00 | 0.10 | 0.00 | 82 | 1018.7 |
| 20260502115504 | 22 | 325 | 1.7 | 4.3 | 0.00 | 0.10 | 0.00 | 82 | 1018.6 |
| 20260502114504 | 22 | 325 | 0.0 | 0.0 | 0.00 | 0.10 | 0.00 | 81 | 1018.6 |
| 20260502114004 | 23 | 325 | 0.0 | 0.0 | 0.00 | 0.10 | 0.00 | 81 | 1018.7 |
| 20260502113503 | 23 | 325 | 1.7 | 4.3 | 0.00 | 0.10 | 0.00 | 81 | 1018.7 |
| 20260502113004 | 23 | 325 | 0.0 | 2.6 | 0.00 | 0.10 | 0.00 | 81 | 1018.6 |
| 20260502112503 | 23 | 325 | 0.9 | 2.6 | 0.00 | 0.10 | 0.00 | 81 | 1018.7 |
| 20260502112003 | 23 | 325 | 1.7 | 2.6 | 0.00 | 0.10 | 0.00 | 81 | 1018.7 |
| 20260502111004 | 23 | 325 | 0.9 | 5.2 | 0.00 | 0.10 | 0.00 | 81 | 1018.7 |
| 20260502110504 | 23 | 325 | 1.7 | 4.3 | 0.00 | 0.10 | 0.00 | 82 | 1018.7 |
| 20260502110004 | 23 | 325 | 0.0 | 0.0 | 0.00 | 0.10 | 0.00 | 81 | 1018.7 |
| 20260502105504 | 23 | 325 | 0.0 | 2.6 | 0.00 | 0.10 | 0.00 | 81 | 1018.7 |
| 20260502105004 | 23 | 325 | 0.0 | 2.6 | 0.00 | 0.10 | 0.00 | 81 | 1018.8 |
| 20260502104003 | 23 | 325 | 0.9 | 1.7 | 0.00 | 0.10 | 0.00 | 81 | 1018.8 |
| 20260502103504 | 23 | 325 | 0.0 | 0.0 | 0.00 | 0.10 | 0.00 | 81 | 1018.8 |
| 20260502103003 | 23 | 325 | 0.0 | 2.6 | 0.00 | 0.10 | 0.00 | 81 | 1018.8 |
| 20260502102504 | 23 | 325 | 2.6 | 2.6 | 0.00 | 0.10 | 0.00 | 81 | 1018.8 |
| 20260502102003 | 23 | 325 | 0.0 | 0.0 | 0.00 | 0.10 | 0.00 | 81 | 1018.6 |
| 20260502101503 | 23 | 325 | 0.9 | 2.6 | 0.00 | 0.10 | 0.00 | 80 | 1018.6 |
| 20260502101004 | 24 | 325 | 0.0 | 0.9 | 0.00 | 0.10 | 0.00 | 80 | 1018.6 |
| 20260502100504 | 24 | 325 | 0.9 | 2.6 | 0.00 | 0.10 | 0.00 | 80 | 1018.6 |
| 20260502091504 | 25 | 325 | 0.0 | 0.0 | 0.00 | 0.10 | 0.00 | 79 | 1018.5 |
| 20260502091003 | 25 | 325 | 0.0 | 0.0 | 0.00 | 0.10 | 0.00 | 79 | 1018.5 |
| 20260502090504 | 25 | 325 | 0.0 | 0.0 | 0.00 | 0.10 | 0.00 | 78 | 1018.5 |
| 20260502071503 | 28 | 325 | 0.0 | 2.6 | 0.00 | 0.10 | 0.00 | 70 | 1019.1 |
| 20260502071004 | 28 | 325 | 1.7 | 2.6 | 0.00 | 0.10 | 0.00 | 70 | 1019.1 |
| 20260502070504 | 28 | 325 | 0.9 | 1.7 | 0.00 | 0.10 | 0.00 | 70 | 1019.1 |
| 20260502070004 | 29 | 325 | 0.0 | 0.0 | 0.00 | 0.10 | 0.00 | 69 | 1019.1 |
| 20260502065503 | 29 | 325 | 0.0 | 0.0 | 0.00 | 0.10 | 0.00 | 69 | 1019.1 |
| 20260502065003 | 29 | 325 | 0.0 | 0.0 | 0.00 | 0.10 | 0.00 | 68 | 1019.1 |
| 20260502064504 | 29 | 325 | 0.0 | 0.9 | 0.00 | 0.10 | 0.00 | 67 | 1019.1 |
| 20260502064004 | 30 | 325 | 1.7 | 2.6 | 0.00 | 0.10 | 0.00 | 66 | 1019.1 |
| 20260502063504 | 30 | 325 | 0.9 | 2.6 | 0.00 | 0.10 | 0.00 | 66 | 1019.2 |
| 20260502063003 | 30 | 282 | 0.0 | 0.0 | 0.00 | 0.10 | 0.00 | 65 | 1019.2 |
| 20260502062504 | 31 | 282 | 0.0 | 0.0 | 0.00 | 0.10 | 0.00 | 64 | 1019.2 |
| 20260502061504 | 31 | 282 | 0.0 | 1.7 | 0.00 | 0.10 | 0.00 | 64 | 1019.1 |
| 20260502061004 | 32 | 282 | 1.7 | 2.6 | 0.00 | 0.10 | 0.00 | 63 | 1019.1 |
| 20260502060503 | 32 | 282 | 1.7 | 1.7 | 0.00 | 0.10 | 0.00 | 62 | 1019.1 |
| 20260502060004 | 32 | 282 | 1.7 | 2.6 | 0.00 | 0.10 | 0.00 | 61 | 1019.1 |
| 20260502055503 | 32 | 327 | 1.7 | 2.6 | 0.00 | 0.10 | 0.10 | 60 | 1019.1 |
| 20260502054504 | 33 | 327 | 1.7 | 2.6 | 0.00 | 0.10 | 0.10 | 60 | 1019.1 |
| 20260502054004 | 34 | 327 | 1.7 | 4.3 | 0.00 | 0.10 | 0.10 | 59 | 1018.9 |
| 20260502053003 | 34 | 230 | 0.0 | 2.6 | 0.00 | 0.10 | 0.10 | 58 | 1018.9 |
| 20260502052503 | 34 | 230 | 2.6 | 4.3 | 0.00 | 0.10 | 0.10 | 59 | 1018.9 |
| 20260502052003 | 34 | 243 | 3.5 | 5.2 | 0.00 | 0.10 | 0.10 | 58 | 1018.9 |
| 20260502051503 | 34 | 267 | 1.7 | 4.3 | 0.00 | 0.10 | 0.10 | 58 | 1019.0 |
| 20260502051004 | 34 | 267 | 1.7 | 2.6 | 0.00 | 0.10 | 0.10 | 59 | 1018.9 |
| 20260502050504 | 34 | 267 | 2.6 | 2.6 | 0.00 | 0.10 | 0.10 | 59 | 1018.9 |
| 20260502050003 | 34 | 267 | 0.0 | 1.7 | 0.00 | 0.10 | 0.10 | 57 | 1019.0 |
| 20260502045504 | 35 | 267 | 0.9 | 2.6 | 0.00 | 0.10 | 0.10 | 57 | 1019.0 |
| 20260502045004 | 35 | 267 | 1.7 | 2.6 | 0.00 | 0.10 | 0.10 | 56 | 1019.1 |
| 20260502044003 | 34 | 267 | 0.9 | 1.7 | 0.00 | 0.10 | 0.10 | 55 | 1019.1 |
| 20260502043504 | 34 | 267 | 1.7 | 2.6 | 0.00 | 0.10 | 0.10 | 55 | 1019.0 |
| 20260502042503 | 34 | 48 | 1.7 | 2.6 | 0.00 | 0.10 | 0.10 | 56 | 1019.0 |
| 20260502042003 | 35 | 48 | 0.0 | 1.7 | 0.00 | 0.10 | 0.10 | 54 | 1018.9 |
| 20260502041504 | 35 | 48 | 1.7 | 2.6 | 0.00 | 0.10 | 0.10 | 52 | 1018.9 |
| 20260502041004 | 36 | 48 | 0.0 | 0.0 | 0.00 | 0.10 | 0.10 | 52 | 1018.8 |
| 20260502040504 | 36 | 48 | 0.0 | 1.7 | 0.00 | 0.10 | 0.10 | 52 | 1018.7 |
| 20260502040004 | 36 | 48 | 0.9 | 2.6 | 0.00 | 0.10 | 0.10 | 52 | 1018.6 |
| 20260502035504 | 37 | 48 | 0.9 | 2.6 | 0.00 | 0.10 | 0.10 | 50 | 1018.7 |
| 20260502034504 | 38 | 287 | 1.7 | 2.6 | 0.00 | 0.10 | 0.10 | 48 | 1019.1 |
| 20260502034003 | 38 | 333 | 0.9 | 1.7 | 0.00 | 0.10 | 0.10 | 48 | 1019.1 |
| 20260502033503 | 38 | 333 | 0.0 | 1.7 | 0.00 | 0.10 | 0.10 | 44 | 1019.0 |
| 20260502033004 | 39 | 347 | 1.7 | 2.6 | 0.00 | 0.10 | 0.10 | 44 | 1018.8 |
| 20260502032503 | 39 | 356 | 0.0 | 0.9 | 0.00 | 0.10 | 0.10 | 44 | 1018.5 |
| 20260502032004 | 39 | 356 | 0.0 | 0.9 | 0.00 | 0.10 | 0.10 | 43 | 1018.1 |
| 20260502031503 | 40 | 356 | 0.9 | 1.7 | 0.00 | 0.10 | 0.10 | 45 | 1017.9 |
| 20260502031003 | 40 | 356 | 0.0 | 2.6 | 0.00 | 0.10 | 0.10 | 44 | 1017.9 |
| 20260502030503 | 40 | 356 | 2.6 | 2.6 | 0.00 | 0.10 | 0.10 | 41 | 1017.9 |
| 20260502030003 | 41 | 348 | 1.7 | 2.6 | 0.00 | 0.10 | 0.10 | 42 | 1017.9 |
| 20260502025003 | 41 | 54 | 0.9 | 2.6 | 0.00 | 0.10 | 0.10 | 40 | 1018.3 |
| 20260502024503 | 42 | 340 | 0.9 | 1.7 | 0.00 | 0.10 | 0.10 | 39 | 1018.3 |
| 20260502024004 | 42 | 340 | 0.9 | 1.7 | 0.00 | 0.10 | 0.10 | 38 | 1018.1 |
| 20260502023504 | 43 | 340 | 1.7 | 2.6 | 0.00 | 0.10 | 0.10 | 39 | 1017.9 |
| 20260502023004 | 43 | 340 | 0.9 | 1.7 | 0.00 | 0.10 | 0.10 | 38 | 1017.8 |
| 20260502022504 | 44 | 340 | 0.9 | 2.6 | 0.00 | 0.10 | 0.10 | 35 | 1017.7 |
| 20260502022004 | 44 | 321 | 1.7 | 2.6 | 0.00 | 0.10 | 0.10 | 36 | 1017.7 |
| 20260502021504 | 44 | 297 | 1.7 | 4.3 | 0.00 | 0.10 | 0.10 | 33 | 1017.6 |
| 20260502021003 | 45 | 303 | 3.5 | 4.3 | 0.00 | 0.10 | 0.10 | 33 | 1017.6 |
| 20260502020503 | 45 | 325 | 2.6 | 5.2 | 0.00 | 0.10 | 0.10 | 32 | 1017.6 |
| 20260502020004 | 45 | 330 | 2.6 | 6.1 | 0.00 | 0.10 | 0.10 | 31 | 1017.6 |
| 20260502015503 | 46 | 350 | 5.2 | 8.7 | 0.00 | 0.10 | 0.10 | 30 | 1017.4 |
| 20260502015004 | 46 | 355 | 2.6 | 5.2 | 0.00 | 0.10 | 0.10 | 31 | 1017.3 |
| 20260502014503 | 47 | 346 | 1.7 | 5.2 | 0.00 | 0.10 | 0.10 | 30 | 1017.2 |
| 20260502014004 | 47 | 355 | 4.3 | 7.0 | 0.00 | 0.10 | 0.10 | 29 | 1017.1 |
| 20260502013504 | 48 | 343 | 5.2 | 7.8 | 0.00 | 0.10 | 0.10 | 29 | 1017.0 |
| 20260502013004 | 48 | 341 | 4.3 | 6.1 | 0.00 | 0.10 | 0.10 | 28 | 1017.0 |
| 20260502012504 | 49 | 341 | 2.6 | 7.0 | 0.00 | 0.10 | 0.10 | 28 | 1017.0 |
| 20260502012003 | 49 | 340 | 4.3 | 8.7 | 0.00 | 0.10 | 0.10 | 27 | 1017.0 |
| 20260502011503 | 50 | 340 | 0.0 | 2.6 | 0.00 | 0.10 | 0.10 | 25 | 1017.0 |
| 20260502011004 | 50 | 341 | 1.7 | 5.2 | 0.00 | 0.10 | 0.10 | 25 | 1016.8 |
| 20260502010003 | 51 | 16 | 2.6 | 7.8 | 0.00 | 0.10 | 0.10 | 25 | 1016.7 |
| 20260502005504 | 51 | 353 | 7.0 | 10.4 | 0.00 | 0.10 | 0.10 | 23 | 1016.7 |
| 20260502005004 | 51 | 342 | 8.7 | 12.2 | 0.00 | 0.10 | 0.10 | 23 | 1017.0 |
| 20260502004504 | 50 | 344 | 4.3 | 10.4 | 0.00 | 0.10 | 0.10 | 25 | 1017.0 |
| 20260502004004 | 50 | 14 | 4.3 | 10.4 | 0.00 | 0.10 | 0.10 | 26 | 1017.0 |
| 20260502003504 | 50 | 46 | 4.3 | 10.4 | 0.00 | 0.10 | 0.10 | 26 | 1017.0 |
| 20260502002504 | 50 | 104 | 5.2 | 14.8 | 0.00 | 0.10 | 0.10 | 24 | 1017.0 |
| 20260502002003 | 50 | 61 | 5.2 | 12.2 | 0.00 | 0.10 | 0.10 | 25 | 1016.9 |
| 20260502001504 | 50 | 46 | 9.6 | 12.2 | 0.00 | 0.10 | 0.10 | 26 | 1016.9 |
| 20260502001003 | 50 | 40 | 6.1 | 12.2 | 0.00 | 0.10 | 0.10 | 26 | 1016.8 |
| 20260502000504 | 51 | 29 | 10.4 | 14.8 | 0.00 | 0.10 | 0.10 | 26 | 1016.8 |
| 20260501235003 | 50 | 348 | 2.6 | 5.2 | 0.00 | 0.10 | 0.10 | 27 | 1016.7 |
| 20260501234004 | 49 | 316 | 4.3 | 8.7 | 0.00 | 0.10 | 0.10 | 27 | 1016.7 |
| 20260501233504 | 49 | 32 | 6.1 | 10.4 | 0.00 | 0.10 | 0.10 | 26 | 1016.8 |
| 20260501233004 | 49 | 28 | 4.3 | 8.7 | 0.00 | 0.10 | 0.10 | 26 | 1016.8 |
| 20260501232004 | 49 | 20 | 4.3 | 13.0 | 0.00 | 0.10 | 0.10 | 26 | 1016.7 |
| 20260501231504 | 49 | 18 | 5.2 | 13.0 | 0.00 | 0.10 | 0.10 | 27 | 1016.6 |
| 20260501231003 | 49 | 7 | 6.1 | 11.3 | 0.00 | 0.10 | 0.10 | 28 | 1016.6 |
| 20260501230503 | 49 | 53 | 4.3 | 10.4 | 0.00 | 0.10 | 0.10 | 25 | 1016.5 |
| 20260501230004 | 49 | 91 | 5.2 | 8.7 | 0.00 | 0.10 | 0.10 | 26 | 1016.5 |
| 20260501225504 | 50 | 84 | 1.7 | 8.7 | 0.00 | 0.10 | 0.10 | 25 | 1016.6 |
| 20260501225004 | 50 | 42 | 2.6 | 7.8 | 0.00 | 0.10 | 0.10 | 24 | 1016.9 |
| 20260501224004 | 50 | 51 | 0.9 | 5.2 | 0.00 | 0.10 | 0.10 | 26 | 1016.9 |
| 20260501223504 | 51 | 45 | 0.0 | 8.7 | 0.00 | 0.10 | 0.10 | 22 | 1017.0 |
| 20260501223003 | 51 | 43 | 5.2 | 10.4 | 0.00 | 0.10 | 0.10 | 25 | 1016.9 |
| 20260501222003 | 50 | 348 | 4.3 | 10.4 | 0.00 | 0.10 | 0.10 | 25 | 1016.9 |
| 20260501221504 | 50 | 341 | 1.7 | 8.7 | 0.00 | 0.10 | 0.10 | 28 | 1017.1 |
| 20260501220504 | 49 | 40 | 5.2 | 10.4 | 0.00 | 0.10 | 0.10 | 26 | 1017.1 |
| 20260501220004 | 49 | 35 | 2.6 | 5.2 | 0.00 | 0.10 | 0.10 | 26 | 1017.2 |
| 20260501215503 | 50 | 33 | 3.5 | 10.4 | 0.00 | 0.10 | 0.10 | 27 | 1017.3 |
| 20260501214504 | 49 | 36 | 7.0 | 10.4 | 0.00 | 0.10 | 0.10 | 29 | 1017.7 |
| 20260501214004 | 49 | 87 | 2.6 | 6.1 | 0.00 | 0.10 | 0.10 | 28 | 1017.8 |
| 20260501213004 | 48 | 71 | 4.3 | 8.7 | 0.00 | 0.10 | 0.10 | 28 | 1017.9 |
| 20260501212503 | 48 | 92 | 1.7 | 5.2 | 0.00 | 0.10 | 0.10 | 26 | 1018.0 |
| 20260501212003 | 49 | 105 | 3.5 | 7.8 | 0.00 | 0.10 | 0.10 | 26 | 1018.0 |
| 20260501211003 | 49 | 38 | 5.2 | 8.7 | 0.00 | 0.10 | 0.10 | 30 | 1018.1 |
| 20260501210504 | 49 | 292 | 3.5 | 7.8 | 0.00 | 0.10 | 0.10 | 28 | 1018.1 |
| 20260501205503 | 49 | 98 | 2.6 | 8.7 | 0.00 | 0.10 | 0.10 | 29 | 1018.1 |
| 20260501205004 | 49 | 117 | 1.7 | 10.4 | 0.00 | 0.10 | 0.10 | 28 | 1018.1 |
| 20260501204504 | 49 | 96 | 5.2 | 12.2 | 0.00 | 0.11 | 0.10 | 29 | 1018.1 |
| 20260501204003 | 49 | 69 | 7.0 | 10.4 | 0.00 | 0.11 | 0.10 | 30 | 1018.1 |
| 20260501203504 | 50 | 44 | 7.0 | 11.3 | 0.00 | 0.11 | 0.10 | 29 | 1018.1 |
| 20260501203004 | 51 | 38 | 8.7 | 13.0 | 0.00 | 0.11 | 0.10 | 31 | 1018.1 |
| 20260501202504 | 51 | 64 | 3.5 | 8.7 | 0.00 | 0.11 | 0.10 | 28 | 1018.1 |